Location: Bayshore Village Mobile Home Park
(26.6945°N, 81.8642°W)
Time: 21:50:20
(UTC+00:00)

Gbstr 26 Del rocket - Pass Details

Date: 17 June 2021
Orbit: 492 x 1264 km, 51.8° (Epoch: 31 July)

Event Time Altitude Azimuth Distance (km) Brightness Sun altitude
Exits shadow 09:55:16 10° 224° (SW) 1,992 5.0 -8.4°
Reaches altitude 10° 09:55:19 10° 224° (SW) 1,970 5.0 -8.4°
Maximum altitude 09:59:49 82° 312° (NW) 717 3.4 -7.5°
Drops below altitude 10° 10:05:27 10° 40° (NE) 2,448 7.5 -6.4°
Sets 10:08:16 0° 41° (NE) 3,524 8.6 -5.9°
